Preview of NWS' New Version of Forecast
This preview is not operational and should not be used for support decisions.

Regional Weather Roundup (RWR)

Issued by National Weather Service (NWS)

                            
000
ASPQ40 PGUM 240910
RWRPQ 
WEATHER ROUNDUP FOR THE MARIANAS AND MICRONESIA
NATIONAL WEATHER SERVICE TIYAN GU
700 PM CHST MON JUN 24 2019

GUZ001>004-241000-
MARIANA ISLANDS-
  
CITY           SKY/WX    TMP DP  RH WIND       PRES   REMARKS
GUAM AIRPORT   PTCLDY    82  75  78 E9        29.90R                  
ANDERSEN AFB   LGT RAIN  82  75  78 E17G24    29.91R                  
ROTA AIRPORT   MOCLDY    82  73  74 E15       29.90R                  
TINIAN AP      PTCLDY    82  77  83 E14       29.89R HX  91           
SAIPAN AP      CLEAR     84  75  74 E16G23    29.90R HX  92           

$$

PMZ161-241000-
REPUBLIC OF PALAU-
  
CITY           SKY/WX    TMP DP  RH WIND       PRES   REMARKS
KOROR AP       MOCLDY    84  77  79 W5        29.83R HX  94           
KOROR WSO      NOT AVBL                                               

$$

PMZ171>174-241000-
FEDERATED STATES OF MICRONESIA-
  
CITY           SKY/WX    TMP DP  RH WIND       PRES   REMARKS
YAP AIRPORT    CLOUDY    82  79  89 VRB5      29.84R HX  93           
CHUUK AP       LGT RAIN  81  79  94 NE12      29.84R                  
POHNPEI AP     NOT AVBL                                               
POHNPEI WSO    NOT AVBL                                               
KOSRAE AP      NOT AVBL                                               

$$

PMZ181-241000-
REPUBLIC OF THE MARSHALL ISLANDS-
  
CITY           SKY/WX    TMP DP  RH WIND       PRES   REMARKS
KWAJALEIN AP   RAIN      79  79 100 NE10      29.89S                  
MAJURO AP      HVY RAIN  81  77  89 NE17      29.91R VSB 1/2          
MAJURO WSO     HVY RAIN  79  77  94 E15       29.92R VSB 1/2          

$$